This demonstration page uses our WeatherBlox Daily Observations layout. Learn more.

Left ArrowRight Arrow

Hourly Observations for July 9, 2017

Temp ( °F °C ) Dew Point ( °F °C ) Humidity (%) Winds ( mph kmh ) Pressure ( in mb ) Visibility ( mi km ) Precip ( " mm )
12:53 am 00:53 Clear 62 16.7 61 16.1 96 96 N N/A 30.07 1018 10 16 N/A
1:53 am 01:53 Clear 61 16.1 60 15.6 97 97 N N/A 30.07 1018 10 16 N/A
2:53 am 02:53 Clear 59 15 59 15 100 100 N N/A 30.07 1018 9 14 N/A
3:53 am 03:53 Clear 59 15 58 14.4 96 96 N N/A 30.07 1018 8 13 N/A
4:53 am 04:53 Clear with Mist and Fog 56 13.3 56 13.3 100 100 N N/A 30.08 1019 6 10 N/A
4:59 am 04:59 Clear with Mist and Fog 56 13.3 56 13.3 100 100 N N/A 30.09 1019 2 2 N/A
5:08 am 05:08 Clear with Fog 56 13.3 55 12.8 97 97 N N/A 30.09 1019 0 0 N/A
5:17 am 05:17 Clear with Mist and Fog 56 13.3 56 13.3 100 100 N N/A 30.09 1019 3 5 N/A
5:30 am 05:30 Clear with Mist and Fog 55 12.8 55 12.8 100 100 N N/A 30.09 1019 1 2 N/A
5:37 am 05:37 Mostly Cloudy with Fog 55 12.8 55 12.8 100 100 N N/A 30.09 1019 1 1 N/A
5:53 am 05:53 Mostly Cloudy with Fog 55 12.8 55 12.8 100 100 N N/A 30.09 1019 1 1 N/A
6:17 am 06:17 Partly Cloudy with Mist and Fog 54 12.2 54 12.2 100 100 N N/A 30.09 1019 2 2 N/A
6:19 am 06:19 Partly Cloudy with Mist and Fog 53 11.7 53 11.7 100 100 N N/A 30.09 1019 4 6 N/A
6:31 am 06:31 Mostly Cloudy with Mist and Fog 54 12.2 54 12.2 100 100 N N/A 30.09 1019 2 3 N/A
6:37 am 06:37 Mostly Cloudy with Mist and Fog 55 12.8 55 12.8 100 100 N N/A 30.12 1020 1 1 N/A
6:53 am 06:53 Mostly Cloudy with Fog 57 13.9 57 13.9 100 100 N N/A 30.10 1019 5 8 N/A
7:53 am 07:53 Mostly Cloudy with Mist and Fog 60 15.6 60 15.6 100 100 N N/A 30.11 1020 1 2 N/A
8:13 am 08:13 Mostly Cloudy with Mist and Fog 61 16.1 61 16.1 100 100 N N/A 30.09 1019 3 5 N/A
8:26 am 08:26 Partly Cloudy 62 16.7 62 16.7 100 100 N N/A 30.09 1019 10 16 N/A
8:53 am 08:53 Sunny 67 19.4 63 17.2 87 87 N N/A 30.11 1020 10 16 N/A
9:53 am 09:53 Sunny 71 21.7 61 16.1 71 71 N N/A 30.12 1020 10 16 N/A
10:53 am 10:53 Sunny 77 25 55 12.8 47 47 N N/A 30.12 1020 10 16 N/A
11:53 am 11:53 Sunny 78 25.6 51 10.6 39 39 N N/A 30.12 1020 10 16 N/A
12:53 pm 12:53 Mostly Sunny 78 25.6 57 13.9 48 48 NW 10 17 30.11 1020 10 16 N/A
1:53 pm 13:53 Partly Cloudy 80 26.7 58 14.4 47 47 VRB 6 9 30.10 1019 10 16 N/A
2:53 pm 14:53 Mostly Sunny 81 27.2 59 15 47 47 SW 7 11 30.09 1019 10 16 N/A
3:53 pm 15:53 Partly Cloudy 81 27.2 58 14.4 45 45 WSW 8 13 30.08 1019 10 16 N/A
4:53 pm 16:53 Mostly Sunny 82 27.8 59 15 46 46 VRB 3 6 30.06 1018 10 16 N/A
5:53 pm 17:53 Partly Cloudy 82 27.8 60 15.6 47 47 N N/A 30.05 1018 10 16 N/A
6:53 pm 18:53 Sunny 81 27.2 58 14.4 45 45 W 6 9 30.04 1017 10 16 N/A
7:53 pm 19:53 Sunny 79 26.1 59 15 50 50 WSW 6 9 30.03 1017 10 16 N/A
8:53 pm 20:53 Sunny 70 21.1 66 18.9 87 87 N N/A 30.03 1017 10 16 N/A
9:53 pm 21:53 Clear 67 19.4 63 17.2 87 87 N N/A 30.03 1017 10 16 N/A
10:53 pm 22:53 Clear 65 18.3 63 17.2 93 93 N N/A 30.04 1017 10 16 N/A
11:53 pm 23:53 Clear 65 18.3 64 17.8 97 97 N N/A 30.04 1017 10 16 N/A

Powered by AerisWeather